This is the latest recevied weather packets stored in our database for station/object CH73TE-13. If no packets are shown the sender has not sent any weather packets the latest 1 day(s).
| Time | Temp. | Humidity | Pressure | Rain* | Wind** | Luminosity | Snow |
|---|---|---|---|---|---|---|---|
| 1778184060 | 13.33° C | 70% | 969 hPa | 0.25 mm | - | 0 W/m² | - |
| 1778183701 | 13.33° C | 73% | 969 hPa | 0.25 mm | - | 0 W/m² | - |
| 1778183401 | 13.33° C | 74% | 969 hPa | 0.25 mm | - | 0 W/m² | - |
| 1778183101 | 12.78° C | 74% | 969 hPa | 0.25 mm | - | 0 W/m² | - |
| 1778182800 | 12.78° C | 74% | 969 hPa | 0.25 mm | - | 0 W/m² | - |
| 1778182500 | 12.78° C | 74% | 969 hPa | 0.25 mm | - | 0 W/m² | - |
| 1778182201 | 12.78° C | 74% | 969 hPa | 0.25 mm | - | 0 W/m² | - |
| 1778181901 | 12.78° C | 73% | 969 hPa | 0.25 mm | - | 0 W/m² | - |
| 1778181601 | 12.78° C | 73% | 969 hPa | 0.25 mm | - | 0 W/m² | - |
| 1778181301 | 12.78° C | 71% | 969 hPa | 0.25 mm | - | 0 W/m² | - |
| 1778180940 | 13.33° C | 70% | 969 hPa | 0.25 mm | - | 0 W/m² | - |
| 1778180641 | 13.33° C | 68% | 969 hPa | 0.25 mm | - | 0 W/m² | - |
| 1778180341 | 14.44° C | 66% | 969 hPa | 0.25 mm | - | 0 W/m² | - |
| 1778180040 | 14.44° C | 63% | 969 hPa | 0.25 mm | - | 0 W/m² | - |
| 1778179740 | 14.44° C | 61% | 969 hPa | 0.25 mm | - | 0 W/m² | - |
| 1778179441 | 15° C | 61% | 969 hPa | 0.25 mm | - | 0 W/m² | - |
| 1778179141 | 15.56° C | 59% | 969 hPa | 0.25 mm | - | 0 W/m² | - |
| 1778178841 | 16.11° C | 57% | 969 hPa | 0.25 mm | - | 0 W/m² | - |
| 1778178541 | 16.11° C | 57% | 969 hPa | 0.25 mm | - | 0 W/m² | - |
| 1778178181 | 16.67° C | 56% | 969 hPa | 0.25 mm | - | 0 W/m² | - |
| 1778177880 | 17.22° C | 55% | 969 hPa | 0.25 mm | - | 0 W/m² | - |
| 1778177580 | 17.22° C | 55% | 969 hPa | 0.25 mm | - | 0 W/m² | - |
| 1778177281 | 17.22° C | 55% | 969 hPa | 0.25 mm | - | 0 W/m² | - |
| 1778176981 | 17.22° C | 54% | 969 hPa | 0.25 mm | - | 0 W/m² | - |
| 1778176681 | 17.22° C | 55% | 969 hPa | 0.25 mm | - | 0 W/m² | - |
* Rain since midnight (hover to see other rain measurements)
** Current wind speed in m/s (hover to see current wind gust speed)